Location: Unspecified
(27.7540°N, 0.0000°E)
Time: 02:05:48
(UTC+00:00)

TIGRISAT - Visible Passes

Search period start: 04 April 2026 00:00
Search period end: 14 April 2026 00:00
Orbit: 580 x 648 km, 97.8° (Epoch: 28 March)

Date Brightness Start Highest point End Pass type
(mag) Time Alt. Az. Time Alt. Az. Time Alt. Az.
9 Apr ? 03:01:26 10° N 03:01:26 10° N 03:01:26 10° N visible
10 Apr ? 03:16:47 11° N 03:16:47 11° N 03:16:57 10° N visible
11 Apr ? 03:32:08 11° NNW 03:32:08 11° NNW 03:32:18 10° NNW visible
13 Apr ? 02:25:49 11° NNE 02:25:49 11° NNE 02:26:06 10° NNE visible
